IRIDIUM 153 (43078 NORAD) Tracking and Keplerian Element Data

This shows tracking and keplerian element data for the satellite.

Feedback or suggestion? Click here.




ElementValue
Catalog43078
NameIRIDIUM 153
Epoch Orbit25047
Epoch Day270.06374823
Epoch Year2022
RAAN138.5143
Inclination86.3979
Eccentricity0.0001986
Argument of Perigee96.5038
Mean Anonmoly263.6384
Mean Motion14.34216027
Decay Rate1.89E-06
L11 43078U 17083J 22270.06374823 .00000189 00000+0 60272-4 0 9995
L22 43078 86.3979 138.5143 0001986 96.5038 263.6384 14.34216027250476

Live tracking and technical data element details for IRIDIUM 153 (NORAD 43078). IRIDIUM 153 can be tracked NOW for your location showing map with azimuth and elevation plus other details from your city location.

Track the satellite on the map from your city or location and see movement details for azimuth, elevation, latitude, longitude, range, height, and movement on the map or in text.







IsCatalogInMostPopularTable: catalog: 43078, numindb: 655
Update: records affected: 1



GetName: 43078 IRIDIUM 153

Hit Count: updated at: Wed, 28 Sep 2022 23:04:45 GMT